Location: *
(37.5724°S, 58.0067°E)
Time: 11:40:58
(UTC+00:00)

ALOS - Pass Details

Date: 26 September 2020
Orbit: 683 x 685 km, 97.9° (Epoch: 29 October)

Event Time Altitude Azimuth Distance (km) Brightness Sun altitude
Rises 23:14:11 0° 40° (NE) 3,043 5.7 -30.2°
Reaches altitude 10° 23:16:38 10° 50° (NE) 2,136 5.0 -29.8°
Maximum altitude 23:20:41 30° 110° (ESE) 1,241 4.1 -29.1°
Drops below altitude 10° 23:24:46 10° 170° (S) 2,162 5.2 -28.4°
Sets 23:27:15 0° 180° (S) 3,087 6.0 -27.9°
